Have a Safe July 4th! 

Flight Track Log - Related Links

Times and Time Zones

All times are in EDT time to prevent confusion due to time zone crossing. See the SWA561 flight status page for this flight to view local times or setup timezone preferences in your user account.

Time Position Orientation Groundspeed Altitude Reporting Facility
EDT Latitude Longitude Course Direction KTS MPH feet Rate Location/Type
Tue 09:34:59 PM 33.8703 -118.5308 229° Southwest 245 282 5,600  Level Los Angeles Center
Tue 09:36:01 PM 33.8103 -118.5456 192° South 270 311 8,100 3,145 Climbing Los Angeles Center
Tue 09:37:03 PM 33.7147 -118.5197 167° South 303 349 12,100 3,756 Climbing Los Angeles Center
Tue 09:38:04 PM 33.6686 -118.4272 121° Southeast 339 390 15,800 3,220 Climbing Los Angeles Center
Tue 09:39:00 PM 33.6333 -118.3280 90° East  Level FlightAware Approximate
Tue 09:39:06 PM 33.6428 -118.3150 105° East 358 412 18,700  Level Los Angeles Center
Tue 09:40:07 PM 33.6444 -118.1894 89° East 388 447 21,500 2,098 Climbing Los Angeles Center
Tue 09:41:09 PM 33.6444 -118.0286 90° East 404 465 23,000 882 Climbing Los Angeles Center
Tue 09:42:23 PM 33.6436 -117.8869 90° East 423 487 23,500 1,689 Climbing Los Angeles Center
Tue 09:43:24 PM 33.6436 -117.7206 90° East 419 482 26,800 2,634 Climbing Los Angeles Center
Tue 09:44:26 PM 33.6428 -117.5742 90° East 435 501 28,900 1,839 Climbing Los Angeles Center
Tue 09:45:28 PM 33.6419 -117.4225 90° East 454 522 30,600 1,610 Climbing Los Angeles Center
Tue 09:46:29 PM 33.6417 -117.2644 90° East 471 542 32,200 1,805 Climbing Los Angeles Center
Tue 09:47:31 PM 33.6397 -117.1031 91° East 484 557 34,300 2,098 Climbing Los Angeles Center
Tue 09:48:32 PM 33.6378 -116.9122 91° East 480 552 36,500 1,707 Climbing Los Angeles Center
Tue 09:49:34 PM 33.6158 -116.7683 100° East 484 557 37,800 1,171 Climbing Los Angeles Center
Tue 09:50:35 PM 33.5933 -116.6106 100° East 479 551 38,900 585 Climbing Los Angeles Center
Tue 09:51:37 PM 33.5697 -116.4461 100° East 494 568 39,000 49 Climbing Los Angeles Center
Tue 09:52:38 PM 33.5461 -116.2808 100° East 499 574 39,000  Level Los Angeles Center
Tue 09:53:40 PM 33.5158 -116.0808 100° East 507 583 39,000  Level Los Angeles Center
Tue 09:54:42 PM 33.4908 -115.9136 100° East 509 586 39,000  Level Los Angeles Center
Tue 09:55:43 PM 33.4647 -115.7453 100° East 512 589 39,000  Level Los Angeles Center
Tue 09:56:45 PM 33.4389 -115.5767 100° East 513 590 39,000  Level Los Angeles Center
Tue 09:57:46 PM 33.4114 -115.4094 101° East 512 589 39,000  Level Los Angeles Center
Tue 09:58:48 PM 33.3853 -115.2431 101° East 508 585 39,000  Level Los Angeles Center
Tue 09:59:50 PM 33.3597 -115.0803 101° East 499 574 39,000  Level Los Angeles Center
Tue 10:00:52 PM 33.3347 -114.9181 100° East 497 572 39,000  Level Los Angeles Center
Tue 10:01:54 PM 33.3100 -114.7556 100° East 496 571 39,000  Level Los Angeles Center
Tue 10:02:55 PM 33.2753 -114.5625 102° East 494 568 39,000  Level Los Angeles Center
Tue 10:03:57 PM 33.2500 -114.3981 100° East 499 574 39,000  Level Los Angeles Center
Tue 10:04:58 PM 33.2236 -114.2331 101° East 505 581 39,000  Level Los Angeles Center
Tue 10:06:00 PM 33.1972 -114.0681 101° East 508 585 39,000  Level Los Angeles Center
Tue 10:07:02 PM 33.1678 -113.9042 102° East 505 581 39,000  Level Los Angeles Center
Tue 10:08:03 PM 33.1394 -113.7372 101° East 510 587 39,000  Level Los Angeles Center
Tue 10:09:05 PM 33.1106 -113.5703 102° East 514 592 39,000  Level Los Angeles Center
Tue 10:10:07 PM 33.0825 -113.3703 99° East 513 590 39,000  Level Los Angeles Center
Tue 10:11:08 PM 33.0528 -113.2158 103° East 526 605 39,000 -448 Level Los Angeles Center
Tue 10:12:21 PM 33.0167 -113.0106 102° East 520 598 38,000 -933 Descending Albuquerque Center
Tue 10:13:23 PM 32.9883 -112.8522 102° East 499 574 36,900 -1,024 Descending Albuquerque Center
Tue 10:14:24 PM 32.9606 -112.6972 102° East 483 556 35,900 -934 Descending Albuquerque Center
Tue 10:15:25 PM 32.9092 -112.5492 112° Southeast 482 555 35,000 -1,122 Descending Albuquerque Center
Tue 10:16:27 PM 32.8522 -112.4014 115° Southeast 488 562 33,600 -1,512 Descending Albuquerque Center
Tue 10:17:28 PM 32.7881 -112.2339 114° Southeast 493 567 31,900 -1,918 Descending Albuquerque Center
Tue 10:18:29 PM 32.7303 -112.0883 115° Southeast 491 565 29,700 -2,390 Descending Albuquerque Center
Tue 10:19:31 PM 32.6758 -111.9453 114° Southeast 484 557 27,000 -2,537 Descending Albuquerque Center
Tue 10:20:32 PM 32.6203 -111.8036 115° Southeast 478 550 24,500 -2,804 Descending Albuquerque Center
Tue 10:21:03 PM 32.5808 -111.7150 118° Southeast 463 533 22,700 -2,557 Descending Albuquerque Center
Tue 10:21:33 PM 32.5675 -111.6739 111° Southeast 453 521 21,900 -2,600 Descending Albuquerque Center
Tue 10:22:03 PM 32.5211 -111.5919 124° Southeast 442 509 20,100 -3,148 Descending Albuquerque Center
Tue 10:22:34 PM 32.4806 -111.5408 133° Southeast 433 498 18,700 -2,754 Descending Albuquerque Center
Tue 10:23:04 PM 32.4386 -111.4953 137° Southeast 420 483 17,300 -2,806 Descending Albuquerque Center
Tue 10:23:36 PM 32.3978 -111.4467 135° Southeast 419 482 15,800 -3,000 Descending Albuquerque Center
Tue 10:24:10 PM 32.3469 -111.3958 140° Southeast 413 475 14,000 -2,754 Descending Albuquerque Center
Tue 10:24:37 PM 32.3144 -111.3586 136° Southeast 408 470 13,000 -2,164 Descending Albuquerque Center
Tue 10:25:11 PM 32.2686 -111.3111 139° Southeast 397 457 11,800 -1,770 Descending Albuquerque Center
Tue 10:25:38 PM 32.2389 -111.2728 133° Southeast 386 444 11,200 -1,475 Descending Albuquerque Center
Tue 10:26:12 PM 32.1933 -111.2203 136° Southeast 358 412 10,300 -1,180 Descending Albuquerque Center
Tue 10:26:39 PM 32.1722 -111.1942 134° Southeast 349 402 10,000 -750 Descending Albuquerque Center
Tue 10:27:00 PM 32.1461 -111.1650 137° Southeast 323 372 9,700 -1,161 Descending Albuquerque Center
Tue 10:27:41 PM 32.1122 -111.1217 133° Southeast 322 371 8,800 -1,562 Descending Albuquerque Center
Tue 10:28:13 PM 32.0742 -111.0811 138° Southeast 299 344 7,800 -1,475 Descending Albuquerque Center
Tue 10:28:42 PM 32.0567 -111.0508 124° Southeast 307 353 7,300 -1,000 Descending Albuquerque Center
Tue 10:29:07 PM 32.0233 -111.0192 141° Southeast 284 327 6,900 -689 Descending Albuquerque Center
Tue 10:29:43 PM 32.0019 -110.9881 129° Southeast 292 336 6,600 -680 Descending Albuquerque Center
Tue 10:30:44 PM 31.9861 -110.9239 106° East 253 291 5,800 -585 Descending Albuquerque Center
Tue 10:31:46 PM 32.0197 -110.8525 61° Northeast 240 276 5,400 -940 Descending Albuquerque Center
Tue 10:32:58 PM 32.0617 -110.8756 335° Northwest 143 165 3,700 -1,091 Descending Albuquerque Center
Tue 10:33:58 PM 32.0869 -110.9064 314° West 133 153 3,000 -700 Descending Albuquerque Center

Login

Don't have an account? Register now (free) for customized features, flight alerts, and more!